This is the latest recevied weather packets stored in our database for station/object KF0RZX-13. If no packets are shown the sender has not sent any weather packets the latest 10 day(s).
| Time | Temp. | Humidity | Pressure | Rain* | Wind** | Luminosity | Snow |
|---|---|---|---|---|---|---|---|
| 1787565536 | 21.11° C | 56% | 1019.6 hPa | 0 mm | - | - | - |
| 1787563731 | 21.11° C | 56% | 1019.6 hPa | 0 mm | - | - | - |
| 1787561927 | 21.11° C | 56% | 1019.6 hPa | 0 mm | - | - | - |
| 1787560124 | 21.11° C | 56% | 1019.6 hPa | 0 mm | - | - | - |
| 1787558317 | 21.11° C | 60% | 1019.6 hPa | 0 mm | - | - | - |
| 1787556512 | 21.11° C | 60% | 1020 hPa | 0 mm | - | - | - |
| 1787554691 | 22.22° C | 53% | 1020.3 hPa | 0 mm | - | - | - |
| 1787552886 | 22.22° C | 53% | 1020 hPa | 0 mm | - | - | - |
| 1787551082 | 22.78° C | 50% | 1019.6 hPa | 0 mm | - | - | - |
| 1787549276 | 22.78° C | 53% | 1019.6 hPa | 0 mm | - | - | - |
| 1787547471 | 22.78° C | 53% | 1019.6 hPa | 0 mm | - | - | - |
| 1787545666 | 23.89° C | 50% | 1019.6 hPa | 0 mm | - | - | - |
| 1787543861 | 25° C | 54% | 1019.6 hPa | 0 mm | - | - | - |
| 1787542056 | 25° C | 57% | 1019.6 hPa | 0 mm | - | - | - |
| 1787540251 | 25° C | 57% | 1018.6 hPa | 0 mm | - | - | - |
| 1787538447 | 25° C | 57% | 1018.6 hPa | 0 mm | - | - | - |
| 1787536641 | 27.22° C | 51% | 1018.3 hPa | 0 mm | - | - | - |
| 1787534836 | 27.78° C | 48% | 1018.3 hPa | 0 mm | - | - | - |
| 1787533031 | 30° C | 38% | 1017.9 hPa | 0 mm | - | - | - |
| 1787531226 | 32.78° C | 30% | 1017.9 hPa | 0 mm | - | - | - |
| 1787529422 | 35° C | 18% | 1017.9 hPa | 0 mm | - | - | - |
| 1787527616 | 35° C | 18% | 1017.9 hPa | 0 mm | - | - | - |
| 1787525811 | 35° C | 19% | 1017.9 hPa | 0 mm | - | - | - |
| 1787522202 | 35° C | 19% | 1018.3 hPa | 0 mm | - | - | - |
| 1787520396 | 36.11° C | 18% | 1018.6 hPa | 0 mm | - | - | - |
* Rain latest hour (hover to see other rain measurements)
** Current wind speed in m/s (hover to see current wind gust speed)